This demonstration page uses our WeatherBlox Daily Observations layout. Learn more.

Left ArrowRight Arrow

38.20091, -84.87328

Hourly Observations for July 30, 2017

Temp ( °F °C ) Dew Point ( °F °C ) Humidity (%) Winds ( mph kmh ) Pressure ( in mb ) Visibility ( mi km ) Precip ( " mm )
12:53 am 00:53 Clear 63 17.2 56 13.3 78 78 Calm 30.02 1017 10 16 0.00 0.00
1:53 am 01:53 Clear 60 15.6 55 12.8 84 84 NNW 3 6 30.03 1017 10 16 0.00 0.00
2:53 am 02:53 Clear 59 15 55 12.8 87 87 Calm 30.05 1018 10 16 0.00 0.00
3:53 am 03:53 Clear 59 15 54 12.2 83 83 Calm 30.06 1018 10 16 0.00 0.00
4:53 am 04:53 Clear 58 14.4 54 12.2 87 87 Calm 30.06 1018 10 16 0.00 0.00
5:53 am 05:53 Clear 59 15 54 12.2 83 83 Calm 30.08 1019 10 16 0.00 0.00
6:53 am 06:53 Sunny 57 13.9 54 12.2 90 90 Calm 30.09 1019 10 16 0.00 0.00
7:53 am 07:53 Sunny 62 16.7 55 12.8 78 78 N 5 7 30.10 1019 10 16 0.00 0.00
8:53 am 08:53 Sunny 67 19.4 56 13.3 68 68 NNE 3 6 30.12 1020 10 16 0.00 0.00
9:53 am 09:53 Sunny 71 21.7 57 13.9 61 61 ENE 6 9 30.13 1020 10 16 0.00 0.00
10:53 am 10:53 Sunny 75 23.9 57 13.9 54 54 NE 3 6 30.13 1020 10 16 0.00 0.00
11:53 am 11:53 Sunny 78 25.6 54 12.2 43 43 ENE 9 15 30.14 1021 10 16 0.00 0.00
12:53 pm 12:53 Sunny 80 26.7 56 13.3 44 44 ENE 7 11 30.13 1020 10 16 0.00 0.00
1:53 pm 13:53 Sunny 82 27.8 55 12.8 40 40 E 13 20 30.12 1020 10 16 0.00 0.00
2:53 pm 14:53 Sunny 83 28.3 55 12.8 38 38 E 13 20 30.11 1020 10 16 0.00 0.00
3:53 pm 15:53 Sunny 83 28.3 57 13.9 41 41 ENE 12 19 30.11 1020 10 16 0.00 0.00
4:53 pm 16:53 Sunny 84 28.9 57 13.9 40 40 E 12 19 30.10 1019 10 16 0.00 0.00
5:53 pm 17:53 Sunny 83 28.3 57 13.9 41 41 ENE 12 19 30.09 1019 10 16 0.00 0.00
6:53 pm 18:53 Sunny 82 27.8 58 14.4 44 44 ENE 8 13 30.10 1019 10 16 0.00 0.00
7:53 pm 19:53 Sunny 81 27.2 58 14.4 45 45 NE 10 17 30.10 1019 10 16 0.00 0.00
8:53 pm 20:53 Clear 78 25.6 59 15 52 52 NE 6 9 30.10 1019 10 16 0.00 0.00
9:53 pm 21:53 Clear 76 24.4 60 15.6 58 58 NNE 3 6 30.11 1020 10 16 0.00 0.00
10:53 pm 22:53 Clear 69 20.6 61 16.1 76 76 Calm 30.11 1020 10 16 0.00 0.00
11:53 pm 23:53 Clear 67 19.4 61 16.1 81 81 Calm 30.11 1020 10 16 0.00 0.00

Powered by AerisWeather